STARLINK-36979, 67996

Orbit data source: Space-Track

STARLINK-36979, 67996 is a payload satellite owned by SpaceX/Seattle (US) in LEO that was launched on Fri, 27 Feb 2026 UTC via an FALCON 9 launch vehicle from the Air Force Eastern Test Range (AFETR). Payload-class satellites include a variety of spacecraft equipped with specific instruments for various scientific and technological missions. These include communications satellites like Starlink; space stations such as the ISS; scientific satellites like the Hubble; Earth observation satellites from companies like Planet Labs, Umbra, and HawkEye 360; GPS; miniature CubeSats for education and research; and military/defense satellites.

Loading next visibility...
Identifier
67996, 2026-039L
Orbit
LEO
Country
Flag of USUS
Related business
Manufacturer
SpaceX/Seattle
Mission
Operational Commercial Communications
Bus & Motor
STARLINK V2MO, Unknown motor
Mass
575 kg wet, ~530 kg dry
Launch date (UTC)
2026-02-27 (2 months ago)
Launch vehicle
FALCON 9
Launch site
Air Force Eastern Test Range (AFETR)
Object type
Payload
Rocket body
Debris
Shape & HBR
Box + 2 Pan, 17.7 m
Radar Cross Section
36.964 m²

Expand to show TLE details & history
Last TLE update: 16 hours ago

TLE from 16 hours ago
0 STARLINK-36979
1 67996U 26039L   26111.84188038  .00016299  00000-0  60034-3 0  9991
2 67996  42.9990 165.1591 0001509 282.6943  77.3740 15.27588887  8307
Epoch: 2026-04-21T20:12Z
TLE epoch observation values (Epoch: 2026-04-21T20:12:18.464Z)
Latitude
-0.00003°
Longitude
12.17027°
Altitude
482.572 km
Speed
7.626 km/s
True Right ascension
11h 00m 38s
True Declination
0° 00' 00"
Sunlit
Object was in full shadow at epoch
Visualization orbit readout
Latitude
Unknown
Longitude
Unknown
Altitude
Unknown
Speed
Unknown
Apparent Right ascension
Unknown
Apparent Declination
Unknown
Sunlit
N/A
Visualization observer readout
Local Sidereal Time
18:58:01
Azimuth
Unknown
Elevation
Unknown
Doppler factor
Unknown
Orbital elements
Apogee altitude
486.003 km
Perigee altitude
483.932 km
Semi-major axis
6,863.105 km
Eccentricity
0.00015
Inclination
42.999°
RAAN
165.1591°
Arg. of periapsis
282.6943°
True anomaly
77.39087°
Mean anomaly
77.374°
Eccentric anomaly
77.38244°
Mean motion
3.81735 °/min
Orbital period
94.31 mins
BSTAR
0.00060034
Loading maneuver chart data...
Computing Atmospheric mass density...
Loading historical data...
Loading historical data...
Loading historical data...
Loading historical data...
Loading historical data...
Loading historical data...
Loading historical data...

Documentation

Showing up to 5 results
|